Погода в Серафимовском

Россия / Республика Башкортостан     54°25′21″N   53°47′24″E
темп.,
°C
ветер,
м/с
пор.,
м/с
влажн.,
%
обл.,
%
осадки,
мм/ч
давл.,
гПа
погр.,
м
8 марта, пн
пн823:00−16ю359783 0.1 101193
02:00−13ю41194100 0.0 1008341
05:00−10ю71491100 0.3 1004575
08:00−8ююз71691100 0.3 1000922
11:00−4юз91692100 1.0 9991132
14:00−2зюз91582100 0.4 9991705
17:00−3зюз6127967 0.6 10021228
20:00−7юз4108525 0.0 1004220
9 марта, вт
вт923:00−7ю379245 0.0 1003188
02:00−4ююз41295100 0.9 1001793
05:00−7зюз7158786 1.9 1003683
08:00−10з369388 0.0 1007145
11:00−9зюз369377 0.0 1010305
14:00−6юз238688 0.0 1011497
17:00−6ююз128794 0.0 1010480
20:00−10юв0192100 0.0 100921
10 марта, ср
ср1023:00−9ссв2396100 0.2 100786
02:00−9ссв4796100 0.9 1004331
05:00−10с61195100 2.3 1002447
08:00−12ссз71295100 1.6 1002478
11:00−13сз81294100 2.8 1004510
14:00−14сз71293100 0.6 1006531
17:00−16сз71292100 0.9 1009565
20:00−17сз61390100 0.1 1012692
11 марта, чт
чт1123:00−18ссз61291100 0.1 1014659
02:00−21ссз61294100 0.0 1015502
05:00−22ссз61194100 0.0 1017471
08:00−24сз51196100 0.0 1019312
11:00−22сз479598 0.0 1020311
14:00−17зсз589277 0.1 1021525
17:00−16зсз589288 0.1 1021508
20:00−18з4995100 0.1 1022236
12 марта, пт
пт1223:00−18зюз3795100 0.1 1023147
02:00−16з4895100 0.1 1023200
05:00−17з479694 0.1 1024120
08:00−19зсз359624 0.0 102782
11:00−14зсз498822 0.0 1028353
14:00−9зсз59790 0.0 1029552
17:00−9зсз59821 0.0 1029595
20:00−13з498956 0.0 1030171